User: anonymous   Login
Location: Newark
(41.0400°S, 62.7845°W)
Time: 13:07:10
(UTC+00:00)
Language:

Hubble Space Telescope - Orbit

View from above orbital plane
View from above orbital plane
View from above satellite
View from above satellite

Ground track
Ground track

The orbit data is extracted from the following two-line orbital elements,

1 20580U 90037B   21339.80829459  .00000917  00000-0  44288-4 0  9994
2 20580  28.4714  11.1123 0002920 107.6063  55.6940 15.09866843536911
Epoch (UTC): 05 December 2021 19:23:56
Eccentricity: 0.0002920
inclination: 28.4714°
perigee height: 534 km
apogee height: 538 km
right ascension of ascending node: 11.1123°
argument of perigee: 107.6063°
revolutions per day: 15.09866843
mean anomaly at epoch: 55.6940°
orbit number at epoch: 53691

The dashed part of the orbit path shows where the satellite is in the earth's shadow,  

DLR